Regional Weather Roundup
Issued by NWS Nashville, TN

Home | Current Version | Previous Version | Text Only | Print | Product List | Glossary On
Versions: 1 2 3 4 5 6 7 8 9 10 11 12 13 14 15 16 17 18 19 20 21 22 23 24 25 26 27 28 29 30 31 32 33 34 35 36 37 38 39 40 41 42 43 44 45 46 47 48 49 50
000
ASUS44 KOHX 011510
RWROHX
MIDDLE TENNESSEE HOURLY WEATHER ROUNDUP
NATIONAL WEATHER SERVICE NASHVILLE TN
1000 AM CDT WED JUL 01 2015

NOTE: "FAIR" INDICATES FEW OR NO CLOUDS BELOW 12,000 FEET WITH
NO SIGNIFICANT WEATHER AND/OR OBSTRUCTIONS TO VISIBILITY.

* THESE REPORTS ARE NOT UNDER NWS QUALITY CONTROL AND MAY NOT
  REPORT WEATHER SUCH AS PRECIPITATION AND FOG.


TNZ005>011-023>034-057-059-062>066-078-080-011600
...NORTHERN MIDDLE TENNESSEE...

CITY           SKY/WX    TMP DP  RH WIND       PRES   REMARKS
CLARKSVILLE    LGT RAIN  75  71  87 SW6       29.97R
CROSSVILLE     PTSUNNY   74  67  78 W6        30.05F
GALLATIN         N/A     76  32  20 S5        30.00R
DICKSON          N/A     73  72  94 SW6       30.00R
LIVINGSTON     CLOUDY    74  69  84 SW9       30.01F
NASHVILLE      CLOUDY    76  73  91 SW5       30.00R
ROCKWOOD       PTSUNNY   76  69  79 CALM      30.04F
SMYRNA         CLOUDY    78  72  82 SW6       30.00S
SPARTA         SUNNY     77  73  88 SW5       30.00S
$$
TNZ056-058-060-061-075>077-079-093>097-011600
...SOUTHERN MIDDLE TENNESSEE...

CITY           SKY/WX    TMP DP  RH WIND       PRES   REMARKS
COLUMBIA       MOSUNNY   79  73  83 SW5       29.99S
LEWISBURG      CLOUDY    78  72  82 SW5       30.00S
MCMINNVILLE    SUNNY     75  73  94 SW7       30.02S
SHELBYVILLE    SUNNY     79  72  78 SW7       30.02S
TULLAHOMA      MOSUNNY   75  70  83 VRB5      30.04S
WINCHESTER     PTSUNNY   79  70  73 SW6       30.03S
$$


...KEY TO REMARKS...
VSB - VISIBILITY IN MILES
WCI - WIND CHILL INDEX
HX  - HEAT INDEX




USA.gov is the U.S. government's official web portal to all federal, state and local government web resources and services.